This is the latest recevied weather packets stored in our database for station/object KE1THD. If no packets are shown the sender has not sent any weather packets the latest 10 day(s).
| Time | Temp. | Humidity | Pressure | Rain* | Wind** | Luminosity | Snow |
|---|---|---|---|---|---|---|---|
| 1777738967 | 13.33° C | 34% | 1020.5 hPa | 0 mm | - | 293 W/m² | - |
| 1777738663 | 12.22° C | 35% | 1020.4 hPa | 0 mm | - | 859 W/m² | - |
| 1777738360 | 11.67° C | 36% | 1020.4 hPa | 0 mm | - | 868 W/m² | - |
| 1777738058 | 12.22° C | 36% | 1020.6 hPa | 0 mm | - | 239 W/m² | - |
| 1777737757 | 11.67° C | 36% | 1020.6 hPa | 0 mm | - | 220 W/m² | - |
| 1777737449 | 12.78° C | 34% | 1020.6 hPa | 0 mm | - | 292 W/m² | - |
| 1777737146 | 11.67° C | 37% | 1020.4 hPa | 0 mm | - | 378 W/m² | - |
| 1777736841 | 11.67° C | 38% | 1020.5 hPa | 0 mm | - | 964 W/m² | - |
| 1777736224 | 11.11° C | 36% | 1020.6 hPa | 0 mm | - | 173 W/m² | - |
| 1777735920 | 11.11° C | 35% | 1020.6 hPa | 0 mm | - | 513 W/m² | - |
| 1777735618 | 11.11° C | 38% | 1020.6 hPa | 0 mm | - | 190 W/m² | - |
| 1777735315 | 11.11° C | 40% | 1020.7 hPa | 0 mm | - | 320 W/m² | - |
| 1777735013 | 12.22° C | 40% | 1020.4 hPa | 0 mm | - | 701 W/m² | - |
| 1777734710 | 11.11° C | 40% | 1020.6 hPa | 0 mm | - | 664 W/m² | - |
| 1777734407 | 11.67° C | 44% | 1020.5 hPa | 0 mm | - | 616 W/m² | - |
| 1777734103 | 11.67° C | 49% | 1020.3 hPa | 0 mm | - | 611 W/m² | - |
| 1777733799 | 11.11° C | 49% | 1020.6 hPa | 0 mm | - | 603 W/m² | - |
| 1777733497 | 11.67° C | 48% | 1020.4 hPa | 0 mm | - | 601 W/m² | - |
| 1777733192 | 10.56° C | 50% | 1020.5 hPa | 0 mm | - | 611 W/m² | - |
| 1777732889 | 10.56° C | 48% | 1020.8 hPa | 0 mm | - | 596 W/m² | - |
| 1777732586 | 11.11° C | 52% | 1020.8 hPa | 0 mm | - | 567 W/m² | - |
| 1777732284 | 10.56° C | 54% | 1020.6 hPa | 0 mm | - | 570 W/m² | - |
| 1777731981 | 11.11° C | 53% | 1020.7 hPa | 0 mm | - | 537 W/m² | - |
| 1777731677 | 10.56° C | 53% | 1020.7 hPa | 0 mm | - | 522 W/m² | - |
| 1777731375 | 10.56° C | 57% | 1020.7 hPa | 0 mm | - | 513 W/m² | - |
* Rain latest hour (hover to see other rain measurements)
** Current wind speed in m/s (hover to see current wind gust speed)